Hourly Data Report for October 31, 2016

All times are specified in Local Standard Time (LST). Add 1 hour to adjust for Daylight Saving Time where and when it is observed.

IQALUIT CLIMATE
NUNAVUT

63°44'50.000" N
68°32'40.000" W
33.50 m
2402592
71321
XFB

Download Data

Hourly Data (October 2016)
Hourly Data Report for October 31, 2016
Temp Definition
°C
Dew Point Temp Definition
°C
Rel Hum Definition
%
Wind Dir Definition
10's deg

Wind Spd Definition
km/h
Visibility Definition
km
Stn Press Definition
kPa
Hmdx Definition


Wind Chill Definition


Weather Definition


TIME
00:00 -3.3 -8.7 66 23 19   99.58   -9 LegendNANA
01:00 -3.8 -8.4 70 23 28   99.65   -11 LegendNANA
02:00 -4.1 -8.7 70 22 13   99.76   -9 LegendNANA
03:00 -4.1 -9.0 69 23 37   99.79   -13 LegendNANA
04:00 -4.2 -8.4 72 23 28   99.88   -12 LegendNANA
05:00 -4.5 -9.5 68 20 16   99.97   -10 LegendNANA
06:00 -4.3 -9.3 68 19 19   100.06   -10 LegendNANA
07:00 -4.2 -9.8 65 20 21   100.10   -11 LegendNANA
08:00 -4.3 -10.0 64 19 23   100.13   -11 LegendNANA
09:00 -4.2 -10.7 61 19 28   100.19   -12 LegendNANA
10:00 -4.2 -11.4 57 21 33   100.21   -12 LegendNANA
11:00 -3.8 -10.8 58 18 22   100.28   -10 LegendNANA
12:00 -3.7 -9.9 62 18 27   100.32   -11 LegendNANA
13:00 -3.7 -8.9 67 18 28   100.37   -11 LegendNANA
14:00 -3.3 -8.3 68 16 18   100.43   -9 LegendNANA
15:00 -3.7 -8.5 69 18 24   100.41   -11 LegendNANA
16:00 -4.0 -9.0 68 20 16   100.46   -10 LegendNANA
17:00 -3.6 -8.9 67 19 12   100.50   -8 LegendNANA
18:00 -3.6 -8.2 70 20 8   100.53   -7 LegendNANA
19:00 -3.0 -8.7 65 20 17   100.61   -9 LegendNANA
20:00 -3.8 -8.2 72 21 6   100.69   -6 LegendNANA
21:00 -3.8 -8.0 73 18 7   100.73   -7 LegendNANA
22:00 -3.3 -8.9 65 23 28   100.75   -11 LegendNANA
23:00 -3.2 -9.2 64 25 20   100.81   -9 LegendNANA

Notes on Data Quality.

Legend

  • E = Estimated
  • M = Missing
  • NA = Not Available
  • ‡ = Partner data that is not subject to review by the National Climate Archives
Date modified: